Printer-friendly version

IAU Minor Planet Center

Minor Planet Center

MPEC 2005-C28 : 2005 CV25

The following Minor Planet Electronic Circular may be linked-to from your own Web pages, but must not otherwise be redistributed electronically.


Read MPEC 2005-C27 Read MPEC 2005-C29


M.P.E.C. 2005-C28                                Issued 2005 Feb. 7, 12:28 UT

     The Minor Planet Electronic Circulars contain information on unusual
         minor planets and routine data on comets.  They are published
   on behalf of Commission 20 of the International Astronomical Union by the
          Minor Planet Center, Smithsonian Astrophysical Observatory,
                          Cambridge, MA 02138, U.S.A.

                  Supported in part by the Brinson Foundation
             Prepared using the Tamkin Foundation Computer Network

                              MPC@CFA.HARVARD.EDU
          URL http://cfa-www.harvard.edu/iau/mpc.html  ISSN 1523-6714

                                   2005 CV25

Observations:
     K05C25V* C2005 02 04.32464 10 04 23.59 +19 55 41.3          20.4 V EC028691
     K05C25V  C2005 02 04.33454 10 04 21.79 +19 55 36.7          20.4 V EC028691
     K05C25V IC2005 02 04.34620 10 04 19.75 +19 55 33.0          21.2 V EC028691
     K05C25V  C2005 02 05.11332 10 02 03.17 +19 49 37.6          20.0 V EC028198
     K05C25V  C2005 02 05.12636 10 02 00.78 +19 49 31.3          20.0 V EC028198
     K05C25V  C2005 02 05.12969 10 02 00.19 +19 49 29.6          20.0 V EC028198
     K05C25V  C2005 02 05.13291 10 01 59.60 +19 49 28.1          20.0 V EC028198
     K05C25V  C2005 02 06.06211 09 59 13.46 +19 42 10.8          19.6 R EC028118
     K05C25V  C2005 02 06.06738 09 59 12.52 +19 42 07.5          20.2 R EC028118
     K05C25V  C2005 02 06.07384 09 59 11.35 +19 42 04.7          20.2 R EC028118
     K05C25V  C2005 02 06.93605 09 56 36.46 +19 35 05.0                 EC028246
     K05C25V  C2005 02 06.93681 09 56 36.28 +19 35 04.7                 EC028246
     K05C25V  C2005 02 06.94030 09 56 35.70 +19 35 03.2                 EC028246
     K05C25V  C2005 02 06.94091 09 56 35.52 +19 35 02.7                 EC028246
     K05C25V  C2005 02 06.94233 09 56 35.29 +19 35 01.0                 EC028246
     K05C25V  C2005 02 07.36046 09 55 19.14 +19 31 36.6          20.1 R EC028711
     K05C25V  C2005 02 07.36869 09 55 17.55 +19 31 32.5          20.3 R EC028711
     K05C25V IC2005 02 07.37689 09 55 16.07 +19 31 26.0                 EC028711

Observer details:
118 Modra.  Observers S. Gajdos, J. Vilagi.  0.6-m f/5.5 reflector + CCD.
198 Wildberg.  Observer R. Apitzsch.  0.35-m f/4.2 reflector + CCD.
246 Klet Observatory-KLENOT.  Observers J. Ticha, M. Tichy.  Measurer M. Tichy.
    1.06-m KLENOT Telescope + CCD.
691 Steward Observatory, Kitt Peak.  Observers J. V. Scotti, R. S. McMillan.
    0.9-m f/3 reflector + CCD.
711 McDonald Observatory.  Observer J. G. Ries.  0.76-m reflector + CCD
    + prime-focus corrector.

Orbital elements:
2005 CV25
Epoch 2005 Jan. 30.0 TT = JDT 2453400.5                 MPC
M 164.18270              (2000.0)            P               Q
n   0.71001056     Peri.  358.86329     +0.82999596     +0.52166189
a   1.2443986      Node   327.15928     -0.50882782     +0.56316611
e   0.2874945      Incl.   21.34868     -0.22847529     +0.64086879
P   1.39           H   19.8           G   0.15
From 18 observations 2005 Feb. 4-7.

Ephemeris:
2005 CV25                a,e,i = 1.24, 0.29, 21                  q = 0.8866
Date    TT    R. A. (2000) Decl.     Delta      r     Elong.  Phase     V
2005 01 30    10 19.47   +20 31.5    0.635    1.594   158.8    12.9    20.6
2005 02 09    09 50.35   +19 17.5    0.615    1.600   173.5     4.0    20.1
2005 02 19    09 20.48   +17 34.2    0.624    1.602   166.5     8.3    20.4
2005 03 01    08 54.98   +15 31.5    0.660    1.601   151.3    17.3    20.8
2005 03 11    08 36.74   +13 25.8    0.717    1.597   137.4    24.9    21.2
2005 03 21    08 26.29   +11 27.2    0.790    1.589   125.3    30.8    21.6
2005 03 31    08 22.62   +09 38.4    0.871    1.579   115.0    35.0    21.9

Timothy B. Spahr             (C) Copyright 2005 MPC           M.P.E.C. 2005-C28

Read MPEC 2005-C27 Read MPEC 2005-C29


Our Web policy. Index to the CBAT/MPC/ICQ pages.


Valid HTML 4.01!